Miscellaneous Local Product
Issued by NWS Hastings, NE

Home | Current Version | Previous Version | Graphics & Text | Print | Product List | Glossary On
Versions: 1 2 3 4 5 6 7 8 9 10 11 12 13 14 15 16 17 18 19 20 21 22 23 24 25 26 27 28 29 30 31 32 33 34 35 36 37 38 39 40 41 42 43 44 45 46 47 48 49 50
873
AXUS43 KGID 252302
MISGRI

GID CWA HOURLY WEATHER ROUNDUP
NATIONAL WEATHER SERVICE HASTINGS NE
600 PM CDT TUE JUL 25 2017

NOTE: "FAIR" INDICATES FEW OR NO CLOUDS BELOW 12,000 FEET WITH NO
SIGNIFICANT WEATHER AND/OR OBSTRUCTIONS TO VISIBILITY.

...SOUTH CENTRAL NEBRASKA...

CITY           SKY/WX    TMP DP  RH WIND       PRES   REMARKS
GRAND ISLAND   MOSUNNY   93  70  46 S16G24    29.92F HX  99
HASTINGS       SUNNY     94  62  34 S15G24    29.94F HX  94
KEARNEY        SUNNY     94  71  47 SE14      29.92F HX 101
ORD            SUNNY     94  66  39 S23G32    29.88F HX  97
YORK           PTSUNNY   90  72  55 S14       29.93F HX  96
AURORA         CLOUDY    91  67  45 S15G22    29.92F HX  95
LEXINGTON      SUNNY     93  70  46 SE18G25   29.91F HX  99
HOLDREGE       SUNNY     91  70  49 SE12      29.92F HX  97
HEBRON         MOSUNNY   93  68  43 S13G18    29.94F HX  97

...NEBRASKA PANHANDLE...

CITY           SKY/WX    TMP DP  RH WIND       PRES   REMARKS
CHADRON        CLOUDY    92  58  31 NE20G29   29.94S HX  91
ALLIANCE       MOSUNNY   95  59  30 N18G29    29.93S HX  94
SCOTTSBLUFF    MOSUNNY   96  54  24 N13       29.95S HX  94
SIDNEY         SUNNY     92  51  24 SE23G30   29.97S

...WESTERN AND NORTH CENTRAL NEBRASKA...

CITY           SKY/WX    TMP DP  RH WIND       PRES   REMARKS
VALENTINE      CLOUDY    85  59  41 N20G29    29.86R THUNDER
AINSWORTH      PTSUNNY   95  65  36 S18G24    29.86R HX  97
ONEILL         MOSUNNY   91  69  47 S21G26    29.87F HX  96
BROKEN BOW     SUNNY     95  68  41 S16G30    29.90F HX  99
IMPERIAL       CLOUDY    98  52  21 S14G23    29.89F HX  95
NORTH PLATTE   MOSUNNY  100  65  31 S14       29.88F HX 103
MCCOOK         SUNNY    101  63  28 S16G23    29.88F HX 103

...EASTERN NEBRASKA...

CITY           SKY/WX    TMP DP  RH WIND       PRES   REMARKS
NORFOLK        SUNNY     91  64  40 S16G28    29.89F HX  92
SO SIOUX CITY  CLOUDY    92  72  51 S15G26    29.89S HX  99
TEKAMAH        SUNNY     94  69  44 S14G21    29.89F HX  99
COLUMBUS       MOSUNNY   91  69  48 S14       29.91F HX  96
ALBION         CLOUDY    93  69  45 S18G25    29.90F HX  98
OMAHA EPPLEY   MOSUNNY   95  74  50 S21G26    29.92F HX 105
OFFUTT AFB     SUNNY     94  74  51 SE21      29.93F HX 103
MILLARD        SUNNY     96  75  50 SE15G24   29.92F HX 108
LINCOLN        MOSUNNY   94  69  44 S15       29.92F HX  99
NEBRASKA CITY  SUNNY     92  73  54 S13       29.96F HX 101
BEATRICE       MOSUNNY   96  64  34 S15       29.95F HX  98
FALLS CITY     SUNNY     93  71  48 S12       29.97F HX 100

...NORTHERN KANSAS...

CITY           SKY/WX    TMP DP  RH WIND       PRES   REMARKS
GOODLAND       SUNNY     97  62  31 SE20G28   29.93F HX  98
HILL CITY      SUNNY    100  65  31 S17G28    29.90F HX 103
NORTON         CLEAR     99  54  22 SE15G28   29.90F HX  96
PHILLIPSBURG   PTSUNNY   97  63  32 SE14G22   29.90F HX  98
SMITH CENTER   SUNNY     95  63  34 SE17G25   29.92F HX  96
HAYS           SUNNY     99  68  36 S24       29.91F HX 104
RUSSELL        MOSUNNY   98  65  33 S18G28    29.92F HX 101
CONCORDIA      SUNNY     95  63  34 S14       29.95F HX  96
SALINA         MOSUNNY  100  63  29 S20G26    29.94F HX 102
TOPEKA         MOSUNNY   93  76  57 SE9       29.99F HX 105



USA.gov is the U.S. government's official web portal to all federal, state and local government web resources and services.